Left ArrowRight Arrow

38.20091, -84.87328

Hourly Observations for June 14, 2024

Temp ( °F °C ) Dew Point ( °F °C ) Humidity (%) Winds ( mph kmh ) Pressure ( in mb ) Visibility ( mi km ) Precip ( " mm )
12:53 am 00:53 Mostly Clear 67 19.4 62 16.7 84 84 Calm 29.95 1014 10 16 0.00 0.00
1:53 am 01:53 Clear 69 20.6 63 17.2 81 81 Calm 29.93 1014 10 16 0.00 0.00
2:53 am 02:53 Clear 67 19.4 62 16.7 84 84 Calm 29.93 1014 10 16 0.00 0.00
3:53 am 03:53 Clear 63 17.2 61 16.1 93 93 Calm 29.93 1014 10 16 0.00 0.00
4:53 am 04:53 Clear 64 17.8 61 16.1 90 90 Calm 29.93 1013 10 16 0.00 0.00
5:53 am 05:53 Clear 64 17.8 61 16.1 90 90 WSW 5 7 29.94 1014 10 16 0.00 0.00
6:53 am 06:53 Sunny 64 17.8 60 15.6 87 87 Calm 29.94 1014 10 16 0.00 0.00
7:53 am 07:53 Sunny 68 20 63 17.2 84 84 SSW 3 6 29.94 1014 10 16 0.00 0.00
8:53 am 08:53 Sunny 74 23.3 64 17.8 71 71 SW 7 11 29.95 1014 10 16 0.00 0.00
9:53 am 09:53 Sunny 76 24.4 65 18.3 69 69 SW 7 11 29.95 1014 10 16 0.00 0.00
10:53 am 10:53 Sunny 81 27.2 64 17.8 57 57 SSW 8 13 29.93 1014 10 16 0.00 0.00
11:53 am 11:53 Sunny 82 27.8 63 17.2 53 53 SSW 8 13 29.93 1013 10 16 0.00 0.00
12:53 pm 12:53 Sunny 86 30 64 17.8 48 48 VRB 3 6 29.92 1013 10 16 0.00 0.00
1:53 pm 13:53 Sunny 87 30.6 65 18.3 48 48 SW 7 11 29.91 1013 10 16 0.00 0.00
2:53 pm 14:53 Sunny 89 31.7 66 18.9 47 47 VRB 5 7 29.90 1013 10 16 0.00 0.00
3:53 pm 15:53 Mostly Cloudy 87 30.6 67 19.4 51 51 W 9 15 29.90 1013 10 16 0.00 0.00
4:53 pm 16:53 Mostly Sunny 88 31.1 69 20.6 54 54 W 6 9 29.89 1012 10 16 0.00 0.00
5:07 pm 17:07 Partly Cloudy with Nearby Thunderstorms 88 31.1 69 20.6 54 54 W 6 9 29.86 1011 10 16 0.00 0.00
5:23 pm 17:23 Mostly Sunny 86 30 69 20.6 57 57 W 5 7 29.86 1011 10 16 0.00 0.00
5:37 pm 17:37 Mostly Cloudy with Rain 85 29.4 70 21.1 61 61 VRB 5 7 29.87 1011 2 2 0.06 1.52
5:47 pm 17:47 Cloudy with Light Rain 82 28 72 22 70 70 WNW 3 6 29.87 1011 4 6 0.07 1.78
5:53 pm 17:53 Mostly Cloudy 82 27.8 74 23.3 77 77 NW 3 6 29.89 1012 10 16 0.07 1.78
6:22 pm 18:22 Partly Cloudy with Nearby Thunderstorms 86 30 72 22.2 63 63 Calm 29.86 1011 10 16 0.00 0.00
6:53 pm 18:53 Mostly Sunny 87 30.6 72 22.2 61 61 VRB 3 6 29.89 1012 10 16 0.00 0.00
7:53 pm 19:53 Mostly Cloudy 84 28.9 73 22.8 70 70 Calm 29.89 1012 10 16 0.00 0.00
8:53 pm 20:53 Mostly Cloudy 82 27.8 73 22.8 74 74 Calm 29.91 1013 10 16 0.00 0.00
9:53 pm 21:53 Mostly Clear 76 24.4 72 22.2 88 88 WSW 3 6 29.93 1013 10 16 0.00 0.00
10:53 pm 22:53 Mostly Cloudy 78 25.6 70 21.1 76 76 N 3 6 29.95 1014 10 16 0.00 0.00
11:53 pm 23:53 Clear 72 22.2 69 20.6 91 91 Calm 29.96 1015 10 16 0.00 0.00

Powered by Vaisala Xweather